Regional Weather Roundup
Issued by NWS

Home | Current Version | Previous Version | Graphics & Text | Print | Product List | Glossary On
Versions: 1 2 3 4 5 6 7 8 9 10 11 12 13 14 15 16 17 18 19 20 21 22 23 24 25 26 27 28 29 30 31 32 33 34 35 36 37 38 39 40 41 42 43 44 45 46 47 48 49 50
000
ASUS43 KFSD 260702
RWRSD

WEATHER ROUNDUP FOR SOUTH DAKOTA
NATIONAL WEATHER SERVICE SIOUX FALLS SD
200 AM CDT TUE SEP 26 2017

NOTE: "FAIR" INDICATES FEW OR NO CLOUDS BELOW 12,000 FEET WITH NO
SIGNIFICANT WEATHER AND/OR OBSTRUCTIONS TO VISIBILITY.


SDZ001>005-009-010-012>017-260800-
NORTHWEST AND NORTH CENTRAL SOUTH DAKOTA

CITY           SKY/WX    TMP DP  RH WIND       PRES   REMARKS
FAITH            N/A     45  45 100 S7        30.11S
MOBRIDGE       CLOUDY    46  43  89 CALM      30.09S
$$

SDZ012>016-024>037-041>051-057-063-072>074-260800-
SOUTHWEST AND SOUTH CENTRAL SOUTH DAKOTA

CITY           SKY/WX    TMP DP  RH WIND       PRES   REMARKS
RAPID CTY ARPT NOT AVBL
PIERRE         MOCLDY    47  44  90 CALM      30.10R
CUSTER         LGT RAIN  39  36  89 SW5       30.13R
ELLSWORTH AFB  CLOUDY    47  44  90 S7        30.11R
PHILIP         CLOUDY    45  45 100 CALM      30.13R
PINE RIDGE     CLOUDY    38  37  97 CALM      30.13S
SPEARFISH      FAIR      41  41 100 NW5       30.09S
WINNER         CLOUDY    49  47  93 NW7       30.11S
$$

SDZ004>011-016>023-039-040-260800-
NORTHEAST SOUTH DAKOTA

CITY           SKY/WX    TMP DP  RH WIND       PRES   REMARKS
ABERDEEN       LGT RAIN  48  48 100 NW7       30.07F
WATERTOWN      LGT RAIN  48  48 100 N9        30.03F FOG
BROOKINGS      LGT RAIN  49  48  97 NW9       30.03S FOG
SISSETON         N/A     50  49  96 NW12      30.05S
$$

SDZ017-020-022-023-036>040-048>070-260800-
SOUTHEAST SOUTH DAKOTA

CITY           SKY/WX    TMP DP  RH WIND       PRES   REMARKS
SIOUX FALLS    LGT RAIN  52  52 100 NW12      30.02R FOG
HURON          CLOUDY    49  48  97 MISG      30.06F
CHAMBERLAIN    CLOUDY    50  50 100 NW5       30.10S
MITCHELL       CLOUDY    50  49  96 NW7       30.07S
YANKTON        RAIN      52  50  93 NW13      30.03S
$$

ABBREVIATIONS USED IN REMARKS
   TC - TEMPERATURE IN CELSIUS
  WCI - WIND CHILL INDEX
   HX - HEAT INDEX
  VSB - VISIBILITY




USA.gov is the U.S. government's official web portal to all federal, state and local government web resources and services.